Time,TemperatureF,DewpointF,PressureIn,WindDirection,WindDirectionDegrees,WindSpeedMPH,WindSpeedGustMPH,Humidity,HourlyPrecipIn,Conditions,Clouds,dailyrainin,SoftwareType,DateUTC
2013-03-13 00:01:00,52.0,24.0,30.17,NNW,343,4.0,6.0,33,0.00,,,0.00,,2013-03-13 07:01:00,
2013-03-13 00:11:00,52.0,24.0,30.17,NNW,343,4.0,6.0,33,0.00,,,0.00,,2013-03-13 07:11:00,
2013-03-13 00:22:00,52.0,24.0,30.17,NNW,348,5.0,7.0,33,0.00,,,0.00,,2013-03-13 07:22:00,
2013-03-13 00:31:00,52.0,25.0,30.17,North,349,3.0,7.0,35,0.00,,,0.00,,2013-03-13 07:31:00,
2013-03-13 00:41:00,52.0,25.0,30.17,North,349,3.0,7.0,35,0.00,,,0.00,,2013-03-13 07:41:00,
2013-03-13 00:52:00,51.0,24.0,30.17,NNW,344,5.0,7.0,35,0.00,,,0.00,,2013-03-13 07:52:00,
2013-03-13 01:02:00,51.0,24.0,30.17,NNW,343,4.0,6.0,35,0.00,,,0.00,,2013-03-13 08:02:00,
2013-03-13 01:11:00,51.0,24.0,30.17,NNW,343,4.0,6.0,35,0.00,,,0.00,,2013-03-13 08:11:00,
2013-03-13 01:21:00,52.0,24.0,30.17,North,360,6.0,7.0,33,0.00,,,0.00,,2013-03-13 08:21:00,
2013-03-13 01:31:00,52.0,24.0,30.16,North,355,4.0,6.0,33,0.00,,,0.00,,2013-03-13 08:31:00,
2013-03-13 01:42:00,52.0,24.0,30.16,North,355,4.0,6.0,33,0.00,,,0.00,,2013-03-13 08:42:00,
2013-03-13 01:53:00,51.0,24.0,30.16,NNW,338,0.0,3.0,34,0.00,,,0.00,,2013-03-13 08:53:00,
2013-03-13 02:01:00,51.0,21.0,30.16,NNW,338,2.0,3.0,30,0.00,,,0.00,,2013-03-13 09:01:00,
2013-03-13 02:11:00,51.0,21.0,30.16,NNW,338,2.0,3.0,30,0.00,,,0.00,,2013-03-13 09:11:00,
2013-03-13 02:22:00,52.0,24.0,30.16,NNW,338,0.0,1.0,33,0.00,,,0.00,,2013-03-13 09:22:00,
2013-03-13 02:31:00,51.0,24.0,30.16,NNW,338,1.0,2.0,34,0.00,,,0.00,,2013-03-13 09:31:00,
2013-03-13 02:41:00,51.0,24.0,30.16,NNW,338,1.0,2.0,34,0.00,,,0.00,,2013-03-13 09:41:00,
2013-03-13 02:52:00,51.0,24.0,30.16,NNW,338,0.0,1.0,34,0.00,,,0.00,,2013-03-13 09:52:00,
2013-03-13 03:01:00,51.0,24.0,30.16,NNW,338,0.0,1.0,34,0.00,,,0.00,,2013-03-13 10:01:00,
2013-03-13 03:11:00,51.0,24.0,30.16,NNW,338,0.0,1.0,34,0.00,,,0.00,,2013-03-13 10:11:00,
2013-03-13 03:22:00,51.0,24.0,30.16,NNW,338,1.0,2.0,34,0.00,,,0.00,,2013-03-13 10:22:00,
2013-03-13 03:32:00,51.0,24.0,30.16,NNW,338,0.0,3.0,35,0.00,,,0.00,,2013-03-13 10:32:00,
2013-03-13 03:42:00,51.0,24.0,30.16,NNW,338,0.0,3.0,35,0.00,,,0.00,,2013-03-13 10:42:00,
2013-03-13 03:52:00,50.0,23.0,30.16,NNW,340,0.0,3.0,34,0.00,,,0.00,,2013-03-13 10:52:00,
2013-03-13 04:01:00,50.0,23.0,30.16,NNW,339,3.0,4.0,34,0.00,,,0.00,,2013-03-13 11:01:00,
2013-03-13 04:11:00,50.0,23.0,30.16,NNW,339,3.0,4.0,34,0.00,,,0.00,,2013-03-13 11:11:00,
2013-03-13 04:21:00,50.0,23.0,30.16,NNW,339,2.0,3.0,34,0.00,,,0.00,,2013-03-13 11:21:00,
2013-03-13 04:31:00,51.0,24.0,30.16,NNW,339,2.0,3.0,35,0.00,,,0.00,,2013-03-13 11:31:00,
2013-03-13 04:41:00,51.0,24.0,30.16,NNW,339,2.0,3.0,35,0.00,,,0.00,,2013-03-13 11:41:00,
2013-03-13 04:52:00,51.0,24.0,30.15,NNW,340,2.0,4.0,34,0.00,,,0.00,,2013-03-13 11:52:00,
2013-03-13 05:02:00,50.0,24.0,30.15,NNW,339,1.0,4.0,36,0.00,,,0.00,,2013-03-13 12:02:00,
2013-03-13 05:11:00,50.0,24.0,30.15,NNW,339,1.0,4.0,36,0.00,,,0.00,,2013-03-13 12:11:00,
2013-03-13 05:22:00,49.0,25.0,30.16,NNW,338,0.0,1.0,38,0.00,,,0.00,,2013-03-13 12:22:00,
2013-03-13 05:32:00,49.0,24.0,30.16,NNW,334,3.0,6.0,37,0.00,,,0.00,,2013-03-13 12:32:00,
2013-03-13 05:41:00,49.0,24.0,30.16,NNW,334,3.0,6.0,37,0.00,,,0.00,,2013-03-13 12:41:00,
2013-03-13 05:52:00,51.0,24.0,30.16,NNW,342,2.0,8.0,34,0.00,,,0.00,,2013-03-13 12:52:00,
2013-03-13 06:01:00,52.0,23.0,30.16,NNW,344,3.0,5.0,32,0.00,,,0.00,,2013-03-13 13:01:00,
2013-03-13 06:11:00,52.0,23.0,30.16,NNW,344,3.0,5.0,32,0.00,,,0.00,,2013-03-13 13:11:00,
2013-03-13 06:21:00,52.0,23.0,30.16,NNW,344,3.0,5.0,32,0.00,,,0.00,,2013-03-13 13:21:00,
2013-03-13 06:32:00,52.0,24.0,30.16,NNW,344,3.0,4.0,33,0.00,,,0.00,,2013-03-13 13:32:00,
2013-03-13 06:41:00,52.0,24.0,30.16,NNW,344,3.0,4.0,33,0.00,,,0.00,,2013-03-13 13:41:00,
2013-03-13 06:52:00,52.0,23.0,30.16,NNW,344,1.0,4.0,32,0.00,,,0.00,,2013-03-13 13:52:00,
2013-03-13 07:01:00,53.0,23.0,30.17,NNW,344,0.0,4.0,31,0.00,,,0.00,,2013-03-13 14:01:00,
2013-03-13 07:11:00,53.0,23.0,30.17,NNW,344,0.0,4.0,31,0.00,,,0.00,,2013-03-13 14:11:00,
2013-03-13 07:21:00,51.0,24.0,30.17,NNW,344,2.0,4.0,34,0.00,,,0.00,,2013-03-13 14:21:00,
2013-03-13 07:32:00,51.0,23.0,30.18,NNW,344,0.0,3.0,33,0.00,,,0.00,,2013-03-13 14:32:00,
2013-03-13 07:41:00,51.0,23.0,30.18,NNW,344,0.0,3.0,33,0.00,,,0.00,,2013-03-13 14:41:00,
2013-03-13 07:52:00,51.0,24.0,30.18,NNW,336,0.0,3.0,34,0.00,,,0.00,,2013-03-13 14:52:00,
2013-03-13 08:11:00,52.0,24.0,30.18,NE,53,0.0,3.0,33,0.00,,,0.00,,2013-03-13 15:11:00,
2013-03-13 08:21:00,56.0,25.0,30.19,NNW,346,2.0,5.0,30,0.00,,,0.00,,2013-03-13 15:21:00,
2013-03-13 08:31:00,56.0,25.0,30.20,North,360,1.0,5.0,30,0.00,,,0.00,,2013-03-13 15:31:00,
2013-03-13 08:42:00,56.0,25.0,30.20,North,360,1.0,5.0,30,0.00,,,0.00,,2013-03-13 15:42:00,
2013-03-13 08:52:00,58.0,22.0,30.20,SE,142,2.0,6.0,25,0.00,,,0.00,,2013-03-13 15:52:00,
2013-03-13 09:02:00,58.0,22.0,30.20,North,5,1.0,4.0,25,0.00,,,0.00,,2013-03-13 16:02:00,
2013-03-13 09:11:00,58.0,22.0,30.20,North,5,1.0,4.0,25,0.00,,,0.00,,2013-03-13 16:11:00,
2013-03-13 09:21:00,61.0,25.0,30.20,NNW,329,1.0,8.0,25,0.00,,,0.00,,2013-03-13 16:21:00,
2013-03-13 09:31:00,62.0,24.0,30.21,WSW,238,3.0,7.0,23,0.00,,,0.00,,2013-03-13 16:31:00,
2013-03-13 09:41:00,62.0,24.0,30.21,WSW,238,3.0,7.0,23,0.00,,,0.00,,2013-03-13 16:41:00,
2013-03-13 09:52:00,62.0,28.0,30.22,WSW,246,3.0,7.0,27,0.00,,,0.00,,2013-03-13 16:52:00,
2013-03-13 10:11:00,64.0,24.0,30.21,NW,304,3.0,6.0,22,0.00,,,0.00,,2013-03-13 17:11:00,
2013-03-13 10:22:00,65.0,27.0,30.22,South,191,2.0,7.0,24,0.00,,,0.00,,2013-03-13 17:22:00,
2013-03-13 10:31:00,64.0,27.0,30.22,SSW,193,4.0,7.0,25,0.00,,,0.00,,2013-03-13 17:31:00,
2013-03-13 10:53:00,63.0,29.0,30.23,South,182,4.0,8.0,28,0.00,,,0.00,,2013-03-13 17:53:00,
2013-03-13 11:01:00,64.0,28.0,30.23,SSW,209,4.0,8.0,26,0.00,,,0.00,,2013-03-13 18:01:00,
2013-03-13 11:11:00,64.0,28.0,30.23,SSW,209,4.0,8.0,26,0.00,,,0.00,,2013-03-13 18:11:00,
2013-03-13 11:21:00,65.0,29.0,30.23,South,189,7.0,11.0,26,0.00,,,0.00,,2013-03-13 18:21:00,
2013-03-13 11:32:00,66.0,26.0,30.22,SSW,195,5.0,11.0,22,0.00,,,0.00,,2013-03-13 18:32:00,
2013-03-13 11:42:00,66.0,26.0,30.22,SSW,195,5.0,11.0,22,0.00,,,0.00,,2013-03-13 18:42:00,
2013-03-13 11:52:00,68.0,24.0,30.22,SE,146,2.0,10.0,19,0.00,,,0.00,,2013-03-13 18:52:00,
2013-03-13 12:02:00,69.0,26.0,30.23,South,169,3.0,13.0,20,0.00,,,0.00,,2013-03-13 19:02:00,
2013-03-13 12:11:00,69.0,26.0,30.23,South,169,3.0,13.0,20,0.00,,,0.00,,2013-03-13 19:11:00,
2013-03-13 12:22:00,68.0,25.0,30.22,SW,221,6.0,17.0,20,0.00,,,0.00,,2013-03-13 19:22:00,
2013-03-13 12:31:00,69.0,24.0,30.22,South,180,9.0,19.0,18,0.00,,,0.00,,2013-03-13 19:31:00,
2013-03-13 12:42:00,69.0,24.0,30.22,South,180,9.0,19.0,18,0.00,,,0.00,,2013-03-13 19:42:00,
2013-03-13 12:53:00,69.0,22.0,30.21,SSW,200,12.0,13.0,17,0.00,,,0.00,,2013-03-13 19:53:00,
2013-03-13 13:01:00,70.0,22.0,30.21,WSW,257,2.0,11.0,16,0.00,,,0.00,,2013-03-13 20:01:00,
2013-03-13 13:11:00,70.0,22.0,30.21,WSW,257,2.0,11.0,16,0.00,,,0.00,,2013-03-13 20:11:00,
2013-03-13 13:21:00,70.0,23.0,30.21,SE,128,2.0,8.0,17,0.00,,,0.00,,2013-03-13 20:21:00,
2013-03-13 13:32:00,71.0,24.0,30.20,SSE,167,5.0,17.0,17,0.00,,,0.00,,2013-03-13 20:32:00,
2013-03-13 13:41:00,71.0,24.0,30.20,SSE,167,5.0,17.0,17,0.00,,,0.00,,2013-03-13 20:41:00,
2013-03-13 13:52:00,71.0,24.0,30.19,South,179,4.0,14.0,17,0.00,,,0.00,,2013-03-13 20:52:00,
2013-03-13 14:01:00,71.0,23.0,30.19,South,173,7.0,16.0,16,0.00,,,0.00,,2013-03-13 21:01:00,
2013-03-13 14:11:00,71.0,23.0,30.19,South,173,7.0,16.0,16,0.00,,,0.00,,2013-03-13 21:11:00,
2013-03-13 14:21:00,72.0,22.0,30.19,SSE,165,7.0,13.0,15,0.00,,,0.00,,2013-03-13 21:21:00,
2013-03-13 14:31:00,71.0,24.0,30.18,SSW,192,11.0,16.0,17,0.00,,,0.00,,2013-03-13 21:31:00,
2013-03-13 14:41:00,71.0,24.0,30.18,SSW,192,11.0,16.0,17,0.00,,,0.00,,2013-03-13 21:41:00,
2013-03-13 14:52:00,72.0,25.0,30.17,SSW,197,2.0,10.0,17,0.00,,,0.00,,2013-03-13 21:52:00,
2013-03-13 15:01:00,73.0,24.0,30.17,NNW,348,3.0,12.0,16,0.00,,,0.00,,2013-03-13 22:01:00,
2013-03-13 15:11:00,73.0,24.0,30.17,NNW,348,3.0,12.0,16,0.00,,,0.00,,2013-03-13 22:11:00,
2013-03-13 15:21:00,73.0,23.0,30.17,SE,144,3.0,11.0,15,0.00,,,0.00,,2013-03-13 22:21:00,
2013-03-13 15:31:00,72.0,22.0,30.17,SSW,198,8.0,12.0,15,0.00,,,0.00,,2013-03-13 22:31:00,
2013-03-13 15:42:00,72.0,22.0,30.17,SSW,198,8.0,12.0,15,0.00,,,0.00,,2013-03-13 22:42:00,
2013-03-13 15:52:00,73.0,21.0,30.16,SSW,205,3.0,10.0,14,0.00,,,0.00,,2013-03-13 22:52:00,
2013-03-13 16:01:00,73.0,24.0,30.16,South,191,4.0,13.0,16,0.00,,,0.00,,2013-03-13 23:01:00,
2013-03-13 16:11:00,73.0,24.0,30.16,South,191,4.0,13.0,16,0.00,,,0.00,,2013-03-13 23:11:00,
2013-03-13 16:21:00,74.0,23.0,30.16,SSW,192,5.0,7.0,15,0.00,,,0.00,,2013-03-13 23:21:00,
2013-03-13 16:31:00,73.0,24.0,30.15,North,360,1.0,10.0,16,0.00,,,0.00,,2013-03-13 23:31:00,
2013-03-13 16:42:00,73.0,24.0,30.15,North,360,1.0,10.0,16,0.00,,,0.00,,2013-03-13 23:42:00,
2013-03-13 16:52:00,74.0,22.0,30.15,SSE,149,5.0,10.0,14,0.00,,,0.00,,2013-03-13 23:52:00,
2013-03-13 17:01:00,74.0,22.0,30.15,SW,214,4.0,9.0,14,0.00,,,0.00,,2013-03-14 00:01:00,
2013-03-13 17:11:00,74.0,22.0,30.15,SW,214,4.0,9.0,14,0.00,,,0.00,,2013-03-14 00:11:00,
2013-03-13 17:21:00,73.0,21.0,30.14,NW,309,2.0,8.0,14,0.00,,,0.00,,2013-03-14 00:21:00,
2013-03-13 17:31:00,74.0,22.0,30.14,NNW,330,1.0,7.0,14,0.00,,,0.00,,2013-03-14 00:31:00,
2013-03-13 17:42:00,74.0,22.0,30.14,NNW,330,1.0,7.0,14,0.00,,,0.00,,2013-03-14 00:42:00,
2013-03-13 17:52:00,74.0,23.0,30.14,NNW,341,1.0,5.0,15,0.00,,,0.00,,2013-03-14 00:52:00,
2013-03-13 18:01:00,72.0,20.0,30.14,SW,227,2.0,5.0,14,0.00,,,0.00,,2013-03-14 01:01:00,
2013-03-13 18:11:00,72.0,20.0,30.14,SW,227,2.0,5.0,14,0.00,,,0.00,,2013-03-14 01:11:00,
2013-03-13 18:21:00,70.0,22.0,30.15,SSW,202,0.0,2.0,16,0.00,,,0.00,,2013-03-14 01:21:00,
2013-03-13 18:41:00,68.0,23.0,30.15,WNW,298,0.0,4.0,18,0.00,,,0.00,,2013-03-14 01:41:00,
2013-03-13 18:52:00,66.0,25.0,30.15,WNW,298,2.0,4.0,21,0.00,,,0.00,,2013-03-14 01:52:00,
2013-03-13 19:01:00,63.0,26.0,30.15,NNW,339,3.0,5.0,24,0.00,,,0.00,,2013-03-14 02:01:00,
2013-03-13 19:22:00,61.0,27.0,30.15,NNW,347,3.0,5.0,27,0.00,,,0.00,,2013-03-14 02:22:00,
2013-03-13 19:41:00,60.0,26.0,30.15,NW,317,1.0,4.0,27,0.00,,,0.00,,2013-03-14 02:41:00,
2013-03-13 19:52:00,60.0,26.0,30.15,NW,317,1.0,4.0,27,0.00,,,0.00,,2013-03-14 02:52:00,
2013-03-13 20:01:00,58.0,25.0,30.16,NW,320,2.0,4.0,28,0.00,,,0.00,,2013-03-14 03:01:00,
2013-03-13 20:22:00,58.0,24.0,30.16,NNW,344,4.0,5.0,27,0.00,,,0.00,,2013-03-14 03:22:00,
2013-03-13 20:31:00,58.0,24.0,30.16,NNW,344,1.0,3.0,27,0.00,,,0.00,,2013-03-14 03:31:00,
2013-03-13 20:41:00,58.0,24.0,30.16,NNW,344,1.0,3.0,27,0.00,,,0.00,,2013-03-14 03:41:00,
2013-03-13 20:52:00,59.0,24.0,30.16,NNW,345,1.0,3.0,26,0.00,,,0.00,,2013-03-14 03:52:00,
2013-03-13 21:01:00,61.0,23.0,30.17,NNW,344,1.0,3.0,23,0.00,,,0.00,,2013-03-14 04:01:00,
2013-03-13 21:11:00,61.0,23.0,30.17,NNW,344,1.0,3.0,23,0.00,,,0.00,,2013-03-14 04:11:00,
2013-03-13 21:22:00,60.0,24.0,30.17,NNW,347,0.0,1.0,25,0.00,,,0.00,,2013-03-14 04:22:00,
2013-03-13 21:32:00,59.0,25.0,30.17,NNW,347,0.0,0.0,27,0.00,,,0.00,,2013-03-14 04:32:00,
2013-03-13 21:41:00,59.0,25.0,30.17,NNW,347,0.0,0.0,27,0.00,,,0.00,,2013-03-14 04:41:00,
2013-03-13 21:52:00,56.0,26.0,30.17,NNW,347,0.0,2.0,31,0.00,,,0.00,,2013-03-14 04:52:00,
2013-03-13 22:01:00,57.0,27.0,30.18,NNW,347,1.0,3.0,31,0.00,,,0.00,,2013-03-14 05:01:00,
2013-03-13 22:11:00,57.0,27.0,30.18,NNW,347,1.0,3.0,31,0.00,,,0.00,,2013-03-14 05:11:00,
2013-03-13 22:21:00,57.0,26.0,30.18,North,349,0.0,1.0,30,0.00,,,0.00,,2013-03-14 05:21:00,
2013-03-13 22:32:00,57.0,26.0,30.18,North,349,0.0,1.0,30,0.00,,,0.00,,2013-03-14 05:32:00,
2013-03-13 22:42:00,57.0,26.0,30.18,North,349,0.0,1.0,30,0.00,,,0.00,,2013-03-14 05:42:00,
2013-03-13 22:52:00,56.0,26.0,30.19,North,349,1.0,2.0,31,0.00,,,0.00,,2013-03-14 05:52:00,
2013-03-13 23:01:00,56.0,24.0,30.19,North,349,1.0,3.0,29,0.00,,,0.00,,2013-03-14 06:01:00,
2013-03-13 23:12:00,56.0,24.0,30.19,North,349,1.0,3.0,29,0.00,,,0.00,,2013-03-14 06:12:00,
2013-03-13 23:21:00,57.0,24.0,30.18,North,349,1.0,3.0,28,0.00,,,0.00,,2013-03-14 06:21:00,
2013-03-13 23:32:00,57.0,25.0,30.18,NNW,340,2.0,5.0,29,0.00,,,0.00,,2013-03-14 06:32:00,
2013-03-13 23:41:00,57.0,25.0,30.18,NNW,340,2.0,5.0,29,0.00,,,0.00,,2013-03-14 06:41:00,
2013-03-13 23:52:00,57.0,27.0,30.18,NNW,337,4.0,7.0,31,0.00,,,0.00,,2013-03-14 06:52:00,